Somerville, NJ

5:09 PM EST on November 18, 2019 (GMT -0500)
Somerset

Weather History for KSMQ - September, 2019

Change the Weather History Date:

Saturday, September 28, 2019

  Actual Average Record
Temperature  
Mean Temperature 68 °F -  
Max Temperature 84 °F 70 °F 87 °F (2014)
Min Temperature 51 °F 47 °F 30 °F (1957)
Cooling Degree Days 2    
Growing Degree Days 18 (Base 50)    
Moisture  
Dew Point 61 °F    
Average Humidity 79    
Maximum Humidity 97    
Minimum Humidity 55    
Precipitation  
Precipitation 0.00 in - - ()
Sea Level Pressure  
Sea Level Pressure 30.08 in    
Wind  
Wind Speed 2 mph (WSW)    
Max Wind Speed 10 mph    
Max Gust Speed 18 mph    
Visibility 9 miles    
Events      
Averages and records for this station are not official NWS values.
T = Trace of Precipitation, MM = Missing Value Source: NWS Daily Summary

Daily Weather History Graph

Daily Weather History Graph

Search for Another Location

Airport or City:

Astronomy

Sep. 28, 2019 Rise Set
Actual Time 6:51 AM EDT 6:46 PM EDT
Civil Twilight 6:24 AM EDT 7:13 PM EDT
Nautical Twilight 5:52 AM EDT 7:45 PM EDT
Astronomical Twilight 5:20 AM EDT 8:17 PM EDT
Moon 6:24 AM EDT (9/28) 7:10 PM EDT (9/28)
Length of Visible Light 12h 48m
Length of Day
11h 54m
Waning Crescent, 0% of the Moon is Illuminated
Sep 28
Waning Crescent
Sep 28
New
Oct 5
First Quarter
Oct 13
Full
Oct 21
Last Quarter

Hourly Weather History & Observations

Time (EDT) Temp. Heat Index Dew Point Humidity Pressure Visibility Wind Dir Wind Speed Gust Speed Precip Events Conditions
12:53 AM 54.0 °F - 52.0 °F 93% 30.11 in 10.0 mi NW 3.5 mph - N/A   Clear
1:53 AM 53.1 °F - 51.1 °F 93% 30.11 in 10.0 mi Calm Calm - N/A   Clear
2:53 AM 52.0 °F - 50.0 °F 93% 30.09 in 9.0 mi Calm Calm - N/A   Clear
3:53 AM 52.0 °F - 51.1 °F 97% 30.09 in 9.0 mi Calm Calm - N/A   Clear
4:53 AM 53.1 °F - 51.1 °F 93% 30.12 in 9.0 mi Calm Calm - N/A   Clear
5:53 AM 52.0 °F - 50.0 °F 93% 30.12 in 10.0 mi Calm Calm - N/A   Clear
6:53 AM 51.1 °F - 50.0 °F 96% 30.12 in 6.0 mi NW 3.5 mph - N/A   Clear
7:53 AM 53.1 °F - 51.1 °F 93% 30.12 in 9.0 mi North - - N/A   Scattered Clouds
8:15 AM 55.0 °F - 53.1 °F 93% 30.12 in 9.0 mi Calm Calm - N/A   Scattered Clouds
8:53 AM 60.1 °F - 55.9 °F 86% 30.12 in 10.0 mi Calm Calm - N/A   Clear
9:53 AM 68.0 °F - 61.0 °F 78% 30.12 in 10.0 mi Calm Calm - N/A   Clear
10:21 AM 71.1 °F - 61.0 °F 70% 30.11 in 10.0 mi Variable 4.6 mph - N/A   Mostly Cloudy
10:38 AM 72.0 °F - 61.0 °F 68% 30.11 in 10.0 mi Calm Calm - N/A   Overcast
10:50 AM 73.4 °F - 62.6 °F 69% 30.10 in 10.0 mi Calm Calm - N/A   Overcast
10:53 AM 75.0 °F - 62.1 °F 64% 30.10 in 10.0 mi Variable 3.5 mph - N/A   Overcast
11:46 AM 78.1 °F - 63.0 °F 60% 30.10 in 10.0 mi North - - N/A   Mostly Cloudy
11:53 AM 78.1 °F - 64.0 °F 62% 30.09 in 10.0 mi South 10.4 mph - N/A   Mostly Cloudy
12:53 PM 81.0 °F 82.7 °F 64.9 °F 58% 30.07 in 10.0 mi Variable 6.9 mph - N/A   Partly Cloudy
1:53 PM 80.1 °F 82.1 °F 66.0 °F 62% 30.05 in 10.0 mi South 8.1 mph - N/A   Overcast
2:53 PM 84.0 °F 86.3 °F 66.0 °F 55% 30.03 in 10.0 mi Variable 6.9 mph 18.4 mph N/A   Scattered Clouds
3:53 PM 84.0 °F 86.5 °F 66.9 °F 56% 30.01 in 10.0 mi Variable 5.8 mph - N/A   Mostly Cloudy
4:53 PM 82.9 °F 85.4 °F 66.9 °F 58% 30.01 in 10.0 mi Calm Calm - N/A   Partly Cloudy
5:53 PM 82.0 °F 84.5 °F 66.9 °F 60% 30.01 in 10.0 mi Calm Calm - N/A   Partly Cloudy
6:53 PM 75.9 °F - 69.1 °F 79% 30.04 in 9.0 mi Calm Calm - N/A   Mostly Cloudy
7:53 PM 72.0 °F - 69.1 °F 91% 30.04 in 9.0 mi Calm Calm - N/A   Clear
8:53 PM 71.1 °F - 66.9 °F 87% 30.05 in 9.0 mi Calm Calm - N/A   Partly Cloudy
9:53 PM 71.1 °F - 68.0 °F 90% 30.07 in 8.0 mi Calm Calm - N/A   Clear
10:53 PM 70.0 °F - 68.0 °F 93% 30.07 in 7.0 mi Calm Calm - N/A   Clear
11:53 PM 69.1 °F - 66.9 °F 93% 30.07 in 6.0 mi Calm Calm - 0.00 in   Clear